This demonstration page uses our WeatherBlox Daily Observations layout. Learn more.

Left ArrowRight Arrow

41.86663, -103.66717

Hourly Observations for June 17, 2022

Temp ( °F °C ) Dew Point ( °F °C ) Humidity (%) Winds ( mph kmh ) Pressure ( in mb ) Visibility ( mi km ) Precip ( " mm )
12:53 am 00:53 Clear 72 22.2 52 11.1 50 50 ESE 17 28 29.92 1013 10 16 0.00 0.00
1:53 am 01:53 Clear 70 21.1 52 11.1 53 53 ESE 13 20 29.93 1013 10 16 0.00 0.00
2:53 am 02:53 Clear 71 21.7 53 11.7 53 53 ESE 20 31 29.89 1012 10 16 0.00 0.00
3:53 am 03:53 Clear 71 21.7 55 12.8 57 57 ESE 24 39 29.83 1010 10 16 0.00 0.00
4:53 am 04:53 Clear 71 21.7 54 12.2 55 55 SE 26 43 29.87 1012 10 16 0.00 0.00
5:53 am 05:53 Sunny 68 20 52 11.1 57 57 ESE 13 20 29.91 1013 10 16 0.00 0.00
6:53 am 06:53 Sunny 69 20.6 53 11.7 57 57 SE 12 19 29.92 1013 10 16 0.00 0.00
7:53 am 07:53 Sunny 71 21.7 54 12.2 55 55 ESE 20 31 29.93 1014 10 16 0.00 0.00
8:53 am 08:53 Sunny 74 23.3 56 13.3 54 54 SE 14 22 29.93 1013 10 16 0.00 0.00
9:53 am 09:53 Sunny 78 25.6 57 13.9 48 48 SE 15 24 29.89 1012 10 16 0.00 0.00
10:53 am 10:53 Sunny 82 27.8 58 14.4 44 44 SE 16 26 29.87 1012 10 16 0.00 0.00
11:53 am 11:53 Sunny 89 31.7 57 13.9 34 34 SE 16 26 29.86 1011 10 16 0.00 0.00
12:53 pm 12:53 Sunny 93 33.9 57 13.9 30 30 SSE 17 28 29.83 1010 10 16 0.00 0.00
1:53 pm 13:53 Sunny 98 36.7 54 12.2 23 23 SSE 22 35 29.78 1009 10 16 0.00 0.00
2:53 pm 14:53 Sunny 101 38.3 49 9.4 17 17 SE 26 43 29.73 1007 10 16 0.00 0.00
3:53 pm 15:53 Sunny 102 38.9 46 7.8 15 15 SE 18 30 29.70 1006 10 16 0.00 0.00
4:53 pm 16:53 Sunny 102 38.9 40 4.4 12 12 SE 24 39 29.69 1005 10 16 0.00 0.00
5:53 pm 17:53 Sunny 100 37.8 43 6.1 14 14 SE 24 39 29.69 1005 10 16 0.00 0.00
6:53 pm 18:53 Sunny 98 36.7 43 6.1 15 15 SE 21 33 29.68 1005 10 16 0.00 0.00
7:53 pm 19:53 Sunny 94 34.4 45 7.2 18 18 SE 20 31 29.68 1005 10 16 0.00 0.00
8:53 pm 20:53 Clear 89 31.7 44 6.7 21 21 ESE 14 22 29.70 1006 10 16 0.00 0.00
9:53 pm 21:53 Clear 88 31.1 43 6.1 21 21 SE 17 28 29.71 1006 10 16 0.00 0.00
10:53 pm 22:53 Clear 86 30 40 4.4 20 20 SSE 21 33 29.72 1006 10 16 0.00 0.00
11:53 pm 23:53 Clear 84 28.9 39 3.9 20 20 SSE 17 28 29.71 1006 10 16 0.00 0.00

Powered by AerisWeather